Tracking 22879 objects as of 22-Apr-2021
HD Live streaming from Space Station
objects crossing your sky now

SL-8 DEB

Track SL-8 DEB now!
10-day predictions


NORAD ID: 27746
Int'l Code: 1991-009DB
Perigee: 1,484.9 km
Apogee: 1,764.8 km
Inclination: 74.1 °
Period: 118.6 minutes
Semi major axis: 7995 km
RCS: 0.0277 m2 (small)
Launch date: February 12, 1991
Source: Commonwealth of Independent States (former USSR) (CIS)
Launch site: PLESETSK MISSILE AND SPACE COMPLEX (PKMTR)

Note: This is SATELLITE DEBRIS
aabbcc
Your satellite tracking list
Your tracking list is empty




NASA's NSSDC Master Catalog

Two Line Element Set (TLE):
1 27746U 91009DB  21111.33917556  .00000230  00000-0  24223-2 0  9990
2 27746  74.1021 245.1526 0175066 202.7725 183.3028 12.14245171345182
Source of the keplerian elements: AFSPC